Location: Newark
(42.9277°N, 71.8621°W)
Time: 05:10:19
(UTC+00:00)

Vanguard 3 - Visible Passes

Search period start: 06 June 2020 00:00
Search period end: 16 June 2020 00:00
Orbit: 509 x 3261 km, 33.3° (Epoch: 05 June)

Date Brightness Start Highest point End Pass type
(mag) Time Alt. Az. Time Alt. Az. Time Alt. Az.
06 Jun 10.5 03:35:55 26° SE 03:36:42 26° SE 03:49:49 10° E visible
06 Jun 10.0 05:40:15 26° SSW 05:51:16 47° SSE 06:05:08 10° E visible
06 Jun 9.6 07:48:18 10° WSW 08:06:10 58° S 08:17:24 10° ESE visible
07 Jun 10.8 02:23:22 16° SE 02:23:22 16° SE 02:30:55 10° ESE visible
07 Jun 10.2 04:27:38 30° S 04:35:07 39° SSE 04:49:56 10° E visible
07 Jun 9.8 06:31:52 11° WSW 06:50:13 56° S 07:03:25 10° E visible
08 Jun 10.4 03:04:18 10° SSW 03:19:11 29° SE 03:33:34 10° E visible
08 Jun 10.0 05:16:39 13° SW 05:33:55 51° SSE 05:48:49 10° E visible
08 Jun 9.7 07:30:36 10° WSW 07:49:09 59° S 08:01:19 10° ESE visible
09 Jun 10.7 01:52:44 10° S 02:03:45 19° SE 02:15:09 10° E visible
09 Jun 10.2 04:00:11 10° SW 04:17:36 42° SSE 04:33:27 10° E visible
09 Jun 9.8 06:13:43 10° WSW 06:32:59 59° S 06:47:09 10° E visible
09 Jun 9.6 08:30:19 10° W 08:47:49 55° SSW 08:58:48 10° ESE visible
10 Jun 10.4 02:46:26 10° SSW 03:01:36 32° SE 03:17:03 10° E visible
10 Jun 10.0 04:57:40 10° SW 05:16:29 54° SSE 05:32:22 10° E visible
10 Jun 9.7 07:12:58 10° WSW 07:32:01 60° S 07:45:06 10° ESE visible
11 Jun 10.6 01:34:29 10° S 01:46:11 22° SE 01:58:53 10° E visible
11 Jun 10.1 03:42:39 10° SW 04:00:02 46° SSE 04:16:50 10° E visible
11 Jun 9.9 05:56:12 10° WSW 06:15:39 61° S 06:30:47 10° E visible
11 Jun 9.7 08:12:41 10° W 08:30:45 54° SSW 08:42:37 10° SE visible
12 Jun 10.3 02:28:52 10° SSW 02:43:59 35° SE 03:00:18 10° E visible
12 Jun 10.0 04:40:16 10° SW 04:58:59 57° SSE 05:15:47 10° E visible
12 Jun 9.8 06:55:26 10° W 07:14:48 61° S 07:28:48 10° ESE visible
13 Jun 10.5 01:16:39 10° S 01:28:36 24° SE 01:42:16 10° E visible
13 Jun 10.1 03:25:20 10° SW 03:42:26 49° SSE 04:00:02 10° E visible
13 Jun 9.9 05:38:50 10° WSW 05:58:13 62° S 06:14:17 10° ESE visible
13 Jun 9.8 07:55:06 10° W 08:13:34 53° SSW 08:26:18 10° SE visible
14 Jun 10.2 02:11:33 10° SSW 02:26:22 38° SE 02:43:22 10° E visible
14 Jun 10.0 04:23:03 10° WSW 04:41:26 59° SSE 04:59:04 10° E visible
14 Jun 9.9 06:38:00 10° W 06:57:27 61° S 07:12:22 10° ESE visible
15 Jun 10.4 00:59:11 10° S 01:11:03 26° SE 01:25:23 10° E visible
15 Jun 10.0 03:08:14 10° SW 03:24:49 51° SSE 03:43:06 10° E visible
15 Jun 9.9 05:21:35 10° WSW 05:40:45 63° S 05:57:40 10° ESE visible
15 Jun 9.9 07:37:37 10° W 07:56:15 52° SSW 08:09:51 10° SE visible
